Location: Unspecified
(17.6330°N, 0.0000°E)
Time: 14:02:44
(UTC+00:00)

Explorer 11/Cluster Stage 4 - All Passes

Search period start: 20 June 2019 00:00
Search period end: 30 June 2019 00:00
Orbit: 467 x 1260 km, 28.8° (Epoch: 19 June)

Date Brightness Start Highest point End Pass type
(mag) Time Alt. Az. Time Alt. Az. Time Alt. Az.
20 Jun - 11:37:27 10° SSW 11:40:00 18° SSE 11:42:33 10° ESE daylight
20 Jun - 13:24:23 10° WSW 13:28:00 67° NNW 13:32:02 10° ENE daylight
20 Jun - 15:13:25 10° WNW 15:16:45 24° N 15:20:37 10° NE daylight
20 Jun - 17:02:14 10° NW 17:06:07 24° N 17:10:44 10° ENE daylight
20 Jun - 18:50:06 10° NW 18:55:28 44° NNE 19:02:05 10° E visible
20 Jun - 20:38:11 10° WNW 20:44:38 74° SSW 20:52:27 10° ESE visible
20 Jun - 22:28:00 10° W 22:33:55 26° SSW 22:40:22 10° SSE visible
21 Jun - 11:26:31 10° SSW 11:29:32 23° SSE 11:32:29 10° E daylight
21 Jun - 13:14:05 10° W 13:17:36 52° NNW 13:21:26 10° ENE daylight
21 Jun - 15:03:20 10° WNW 15:06:24 21° N 15:09:53 10° NE daylight
21 Jun - 16:51:58 10° NW 16:55:43 23° N 17:00:07 10° ENE daylight
21 Jun - 18:39:40 10° NW 18:44:53 48° NNE 18:51:25 10° E daylight
21 Jun - 20:27:45 10° WNW 20:33:57 63° SSW 20:41:30 10° SE visible
21 Jun - 22:17:56 10° WSW 22:23:13 21° SSW 22:28:58 10° SSE visible
22 Jun - 11:15:42 10° SW 11:19:05 31° SSE 11:22:19 10° E daylight
22 Jun - 13:03:47 10° W 13:07:13 41° NNW 13:10:50 10° NE daylight
22 Jun - 14:53:14 10° NW 14:56:04 19° N 14:59:11 10° NE daylight
22 Jun - 16:41:42 10° NW 16:45:18 23° NNE 16:49:33 10° ENE daylight
22 Jun - 18:29:15 10° NW 18:34:20 54° NNE 18:40:44 10° E daylight
22 Jun - 20:17:24 10° WNW 20:23:17 53° SSW 20:30:29 10° SE visible
22 Jun - 22:08:05 10° WSW 22:12:32 17° SSW 22:17:22 10° S visible
23 Jun - 11:04:57 10° SW 11:08:39 41° SSE 11:12:04 10° E daylight
23 Jun - 12:53:32 10° W 12:56:50 33° NNW 13:00:15 10° NE daylight
23 Jun - 14:43:08 10° NW 14:45:43 17° N 14:48:32 10° NE daylight
23 Jun - 16:31:22 10° NW 16:34:54 24° NNE 16:39:01 10° ENE daylight
23 Jun - 18:18:50 10° WNW 18:23:46 61° NNE 18:30:01 10° ESE daylight
23 Jun - 20:07:06 10° W 20:12:39 44° SSW 20:19:26 10° SE visible
23 Jun - 21:58:35 10° WSW 22:01:55 14° SSW 22:05:27 10° S visible
24 Jun - 09:08:55 10° SSE 09:09:52 11° SSE 09:10:47 10° SE daylight
24 Jun - 10:54:15 10° SW 10:58:13 56° SSE 11:01:47 10° ENE daylight
24 Jun - 12:43:17 10° WNW 12:46:28 28° NNW 12:49:40 10° NE daylight
24 Jun - 14:33:00 10° NW 14:35:23 16° N 14:37:56 10° NE daylight
24 Jun - 16:21:01 10° NW 16:24:29 24° NNE 16:28:31 10° ENE daylight
24 Jun - 18:08:26 10° WNW 18:13:13 70° NNE 18:19:18 10° ESE daylight
24 Jun - 19:56:53 10° W 20:02:02 36° SSW 20:08:18 10° SE visible
24 Jun - 21:50:12 10° SW 21:51:19 10° SSW 21:52:28 10° SSW visible
25 Jun - 08:56:45 10° S 08:59:25 15° SSE 09:01:50 10° ESE daylight
25 Jun - 10:43:36 10° WSW 10:47:47 75° SSE 10:51:27 10° ENE daylight
25 Jun - 12:33:02 10° WNW 12:36:07 24° NNW 12:39:07 10° NE daylight
25 Jun - 14:22:49 10° NW 14:25:03 15° N 14:27:24 10° NE daylight
25 Jun - 16:10:38 10° NW 16:14:04 26° NNE 16:18:02 10° ENE daylight
25 Jun - 17:58:04 10° WNW 18:02:41 83° NNE 18:08:33 10° ESE daylight
25 Jun - 19:46:46 10° W 19:51:27 29° SSW 19:57:05 10° SSE visible
26 Jun - 08:45:18 10° SSW 08:48:57 20° SSE 08:52:08 10° ESE daylight
26 Jun - 10:32:58 10° WSW 10:37:20 85° NNW 10:41:05 10° ENE daylight
26 Jun - 12:22:48 10° WNW 12:25:44 21° NNW 12:28:35 10° NE daylight
26 Jun - 14:12:36 10° NNW 14:14:44 15° N 14:16:56 10° NE daylight
26 Jun - 16:00:15 10° NW 16:03:39 28° NNE 16:07:35 10° ENE daylight
26 Jun - 17:47:43 10° WNW 17:52:09 82° SSW 17:57:46 10° ESE daylight
26 Jun - 19:36:46 10° WSW 19:40:54 23° SSW 19:45:46 10° SSE visible
27 Jun - 08:34:04 10° SSW 08:38:29 26° SSE 08:42:12 10° E daylight
27 Jun - 10:22:22 10° WSW 10:26:53 68° NNW 10:30:42 10° ENE daylight
27 Jun - 12:12:32 10° WNW 12:15:23 19° NNW 12:18:05 10° NE daylight
27 Jun - 14:02:17 10° NNW 14:04:24 15° N 14:06:34 10° NE daylight
27 Jun - 15:49:49 10° NW 15:53:14 30° NNE 15:57:09 10° E daylight
27 Jun - 17:37:23 10° WNW 17:41:39 66° SSW 17:46:58 10° ESE daylight
27 Jun - 19:26:57 10° WSW 19:30:23 17° SSW 19:34:17 10° SSE visible
28 Jun - 08:22:57 10° SW 08:28:00 34° SSE 08:32:07 10° E daylight
28 Jun - 10:11:47 10° WSW 10:16:26 56° NNW 10:20:18 10° ENE daylight
28 Jun - 12:02:15 10° WNW 12:05:01 18° NNW 12:07:37 10° NE daylight
28 Jun - 13:51:54 10° NNW 13:54:04 15° N 13:56:15 10° NE daylight
28 Jun - 15:39:23 10° NW 15:42:49 35° NNE 15:46:44 10° E daylight
28 Jun - 17:27:07 10° WNW 17:31:10 52° SSW 17:36:08 10° SE daylight
28 Jun - 19:17:32 10° SW 19:19:53 13° SSW 19:22:27 10° S visible
29 Jun - 06:26:06 10° S 06:28:30 12° SSE 06:30:45 10° SE daylight
29 Jun - 08:11:55 10° SW 08:17:29 43° SSE 08:21:57 10° E daylight
29 Jun - 10:01:13 10° W 10:05:59 47° NNW 10:09:55 10° NE daylight
29 Jun - 11:51:55 10° NW 11:54:40 17° N 11:57:13 10° NE daylight
29 Jun - 13:41:26 10° NNW 13:43:43 16° N 13:46:01 10° NE daylight
29 Jun - 15:28:55 10° NW 15:32:24 40° NNE 15:36:18 10° E daylight
29 Jun - 17:16:53 10° W 17:20:42 39° SSW 17:25:14 10° SE daylight
